Temp
-6 -6 -6 -6 -5 -5 -6 -5 -5 -6 -6 -6 -6 -6 -6 -6 -6 -6 -6 -6 -6 -7 -6 -6 -6 -6 -6 -6 -6 -6 -6 -6 -6 -6 -7 -7 -7 -7 -7 -7 -7 -7 -7
-6 -6 -6 -6 -5 -5 -5 -5 -6 -5 -6 -5 -5 -5 -6 -6 -6 -6 -6 -6 -6 -6 -6 -6 -6 -6 -6 -6 -6 -6 -6 -6 -6 -6 -6 -7 -6 -6 -7 -7 -7 -7 -7
-6 -5 -5 -5 -5 -5 -5 -5 -5 -5 -5 -5 -5 -5 -6 -6 -6 -5 -5 -6 -6 -6 -6 -6 -6 -5 -6 -6 -6 -6 -6 -6 -6 -6 -6 -6 -6 -6 -6 -6 -6 -6 -7
-6 -5 -5 -5 -5 -5 -5 -5 -5 -5 -5 -5 -5 -6 -5 -5 -5 -6 -6 -6 -6 -6 -6 -6 -6 -6 -6 -6 -6 -5 -6 -6 -7 -6 -6 -6 -6 -6 -6 -6 -6 -6 -6
-6 -6 -5 -5 -5 -5 -5 -5 -5 -5 -5 -6 -6 -5 -5 -5 -6 -6 -6 -5 -6 -6 -6 -6 -6 -6 -6 -6 -6 -6 -6 -6 -6 -6 -7 -7 -7 -7 -7 -7 -6 -6 -6
-6 -6 -5 -5 -4 -5 -4 -4 -4 -4 -5 -5 -5 -5 -5 -5 -6 -5 -5 -5 -6 -6 -6 -6 -6 -6 -6 -6 -6 -6 -6 -6 -7 -7 -7 -7 -7 -7 -7 -6 -6 -6 -7
-6 -6 -5 -5 -4 -5 -4 -4 -4 -4 -5 -5 -5 -4 -5 -5 -5 -5 -5 -5 -6 -6 -6 -6 -6 -6 -6 -6 -6 -6 -6 -7 -7 -7 -7 -7 -7 -8 -7 -7 -7 -7 -7
-6 -5 -5 -5 -4 -4 -5 -5 -5 -5 -5 -5 -5 -4 -4 -4 -4 -5 -5 -5 -5 -5 -6 -6 -6 -6 -6 -6 -6 -6 -6 -7 -7 -7 -7 -8 -8 -8 -7 -7 -7 -7 -7
-6 -5 -5 -5 -4 -4 -5 -5 -5 -5 -5 -5 -4 -4 -4 -4 -4 -4 -5 -5 -5 -5 -5 -6 -6 -6 -6 -6 -6 -7 -7 -7 -7 -8 -8 -8 -8 -8 -8 -7 -7 -7 -7
-6 -6 -5 -5 -5 -5 -5 -5 -4 -4 -4 -4 -4 -4 -4 -4 -4 -5 -5 -5 -5 -5 -5 -6 -6 -6 -6 -6 -7 -7 -7 -7 -7 -8 -8 -8 -9 -8 -8 -8 -7 -7 -7
-6 -5 -5 -5 -5 -5 -5 -5 -4 -4 -4 -4 -4 -5 -5 -5 -5 -5 -6 -6 -6 -7 -6 -6 -7 -7 -7 -7 -7 -7 -7 -7 -7 -8 -8 -9 -8 -8 -8 -8 -8 -8 -7
-6 -6 -6 -6 -6 -6 -6 -6 -6 -5 -5 -5 -5 -5 -5 -5 -5 -6 -6 -6 -6 -7 -7 -7 -7 -7 -7 -7 -7 -7 -7 -7 -7 -8 -8 -9 -9 -9 -9 -8 -8 -8 -8
-6 -6 -6 -6 -6 -6 -6 -6 -5 -5 -5 -5 -5 -5 -5 -5 -6 -6 -6 -7 -7 -7 -7 -7 -7 -6 -6 -7 -8 -8 -7 -8 -7 -8 -8 -8 -9 -9 -8 -8 -9 -8 -8
-6 -5 -6 -5 -5 -6 -6 -6 -5 -5 -5 -4 -5 -5 -6 -6 -6 -6 -6 -6 -7 -7 -7 -7 -7 -7 -6 -6 -7 -8 -8 -7 -8 -7 -7 -8 -8 -8 -9 -9 -9 -9 -9
-5 -5 -6 -6 -5 -5 -5 -5 -5 -5 -5 -5 -5 -5 -6 -6 -6 -6 -7 -7 -7 -7 -7 -7 -7 -6 -6 -6 -6 -7 -8 -8 -8 -8 -7 -7 -8 -8 -8 -9 -9 -9 -9
-5 -5 -6 -6 -6 -6 -6 -6 -6 -6 -6 -5 -5 -6 -6 -6 -6 -7 -7 -7 -7 -7 -7 -7 -7 -7 -7 -7 -7 -6 -7 -7 -7 -7 -8 -8 -8 -8 -8 -9 -9 -9 -9
-5 -5 -5 -5 -5 -6 -6 -6 -6 -6 -6 -6 -6 -6 -6 -6 -6 -7 -7 -7 -6 -7 -7 -7 -7 -7 -7 -7 -7 -7 -7 -7 -7 -7 -8 -8 -8 -8 -9 -9 -9 -9 -9
-6 -6 -6 -6 -6 -6 -6 -6 -6 -6 -6 -7 -6 -6 -6 -6 -6 -7 -7 -6 -6 -6 -6 -6 -6 -6 -7 -8 -8 -7 -7 -6 -6 -7 -7 -8 -8 -8 -8 -9 -9 -9 -9
-6 -6 -6 -6 -6 -6 -5 -5 -5 -6 -6 -7 -7 -6 -6 -6 -6 -6 -7 -7 -6 -6 -6 -6 -6 -7 -7 -7 -8 -8 -7 -7 -7 -7 -7 -7 -8 -8 -8 -9 -8 -8 -8
-4 -5 -5 -5 -5 -5 -6 -6 -6 -6 -6 -7 -7 -6 -6 -6 -6 -6 -7 -7 -7 -6 -6 -6 -6 -7 -7 -7 -7 -8 -8 -7 -7 -7 -7 -7 -8 -8 -8 -8 -9 -8 -9
-5 -4 -4 -4 -4 -5 -5 -5 -6 -6 -6 -6 -6 -6 -6 -6 -6 -6 -6 -6 -6 -6 -6 -6 -6 -6 -7 -7 -8 -8 -8 -8 -8 -8 -8 -7 -8 -9 -8 -9 -9 -8 -9
-5 -5 -4 -4 -4 -4 -4 -5 -5 -6 -5 -5 -6 -6 -6 -7 -6 -6 -6 -6 -7 -7 -7 -6 -7 -6 -7 -7 -7 -8 -8 -8 -8 -8 -8 -8 -8 -8 -9 -9 -9 -9 -8
-5 -5 -5 -5 -4 -4 -5 -4 -4 -5 -5 -4 -5 -5 -6 -6 -6 -7 -7 -7 -6 -6 -7 -6 -6 -6 -7 -7 -7 -7 -8 -8 -8 -8 -8 -8 -8 -8 -8 -9 -10 -9 -8
-6 -6 -5 -5 -5 -5 -4 -4 -4 -4 -4 -4 -5 -5 -6 -6 -6 -6 -6 -6 -6 -6 -7 -7 -7 -7 -7 -7 -8 -8 -8 -8 -8 -8 -8 -8 -7 -8 -8 -9 -9 -9 -9
-6 -6 -6 -5 -5 -5 -5 -5 -5 -5 -5 -5 -5 -5 -5 -5 -6 -6 -6 -6 -6 -7 -7 -7 -7 -8 -8 -8 -8 -8 -7 -8 -8 -8 -7 -8 -8 -7 -8 -8 -8 -8 -9
-6 -6 -6 -6 -5 -5 -5 -5 -5 -5 -5 -5 -5 -5 -5 -5 -5 -6 -6 -6 -6 -7 -7 -7 -7 -7 -8 -8 -8 -8 -7 -7 -8 -8 -8 -8 -8 -7 -8 -7 -7 -7 -8
Height
5889 5890 5892 5894 5898 5902 5904 5907 5910 5912 5915 5918 5921 5924 5926 5928 5930 5932 5933 5934 5935 5936 5935 5935 5934 5933 5932 5931 5930 5927 5924 5922 5920 5919 5919 5920 5920 5920 5921 5921 5922 5921 5920
5889 5890 5892 5894 5897 5900 5902 5905 5909 5912 5914 5917 5920 5923 5926 5927 5929 5931 5932 5934 5935 5935 5935 5935 5935 5934 5933 5932 5932 5930 5927 5925 5923 5922 5922 5922 5922 5922 5922 5922 5921 5921 5920
5889 5890 5891 5893 5896 5899 5902 5904 5907 5910 5913 5916 5919 5923 5925 5926 5927 5929 5932 5934 5935 5934 5934 5936 5936 5935 5934 5933 5932 5930 5928 5928 5927 5926 5925 5925 5924 5923 5923 5922 5922 5921 5921
5887 5889 5892 5893 5895 5897 5900 5903 5906 5909 5912 5915 5918 5921 5923 5925 5928 5930 5931 5932 5934 5934 5934 5936 5937 5936 5935 5934 5933 5931 5930 5929 5929 5929 5928 5927 5926 5926 5926 5925 5924 5923 5921
5885 5887 5889 5891 5891 5895 5899 5903 5906 5909 5912 5915 5917 5919 5923 5925 5927 5928 5930 5932 5934 5935 5935 5936 5936 5936 5935 5934 5934 5934 5932 5932 5931 5930 5929 5928 5927 5927 5926 5925 5924 5923 5921
5883 5884 5886 5890 5894 5895 5898 5903 5906 5909 5911 5913 5916 5919 5921 5923 5925 5926 5929 5931 5933 5934 5935 5935 5935 5936 5935 5934 5934 5934 5934 5933 5932 5931 5929 5928 5927 5926 5925 5924 5922 5921 5920
5880 5881 5883 5888 5892 5894 5897 5901 5904 5907 5910 5913 5916 5918 5920 5922 5924 5925 5927 5929 5931 5933 5935 5935 5934 5935 5935 5935 5934 5934 5934 5933 5932 5931 5929 5929 5928 5927 5926 5923 5921 5920 5918
5877 5879 5882 5885 5889 5892 5894 5898 5902 5905 5908 5911 5914 5917 5919 5921 5923 5924 5926 5927 5929 5930 5932 5933 5933 5934 5934 5935 5934 5934 5934 5934 5932 5931 5929 5928 5927 5927 5926 5924 5921 5919 5920
5874 5878 5879 5882 5886 5890 5893 5897 5900 5904 5907 5910 5912 5915 5918 5920 5921 5922 5923 5925 5926 5927 5928 5929 5930 5931 5932 5933 5933 5933 5933 5932 5931 5931 5930 5929 5929 5927 5925 5923 5920 5919 5918
5871 5874 5876 5880 5884 5888 5891 5894 5898 5903 5905 5907 5910 5912 5915 5917 5918 5919 5920 5921 5922 5924 5925 5925 5926 5927 5929 5930 5931 5931 5931 5930 5930 5929 5929 5928 5927 5925 5924 5922 5920 5919 5917
5868 5871 5874 5877 5881 5885 5889 5893 5896 5900 5903 5906 5907 5910 5912 5913 5914 5916 5916 5917 5918 5920 5921 5922 5923 5924 5925 5926 5927 5928 5928 5928 5927 5927 5927 5926 5923 5921 5920 5920 5919 5916 5915
5864 5867 5870 5873 5876 5882 5886 5891 5893 5896 5900 5903 5905 5907 5908 5910 5912 5912 5913 5914 5914 5915 5916 5918 5919 5919 5920 5921 5923 5924 5925 5926 5925 5925 5926 5924 5922 5920 5918 5919 5917 5915 5914
5860 5864 5867 5869 5874 5878 5884 5887 5891 5895 5898 5901 5902 5904 5907 5908 5910 5910 5910 5910 5911 5912 5913 5913 5914 5915 5915 5915 5918 5920 5922 5922 5921 5922 5923 5923 5922 5920 5919 5918 5916 5913 5912
5850 5856 5861 5866 5871 5875 5880 5884 5887 5890 5893 5896 5899 5902 5904 5905 5906 5906 5907 5908 5909 5910 5910 5911 5911 5911 5913 5914 5915 5917 5919 5920 5920 5921 5921 5921 5920 5919 5917 5916 5914 5912 5910
5846 5852 5856 5859 5864 5869 5874 5878 5881 5885 5888 5891 5895 5898 5901 5902 5902 5903 5904 5905 5906 5907 5907 5909 5909 5910 5910 5910 5909 5910 5911 5914 5916 5917 5916 5915 5915 5914 5913 5912 5910 5909 5905
5840 5846 5851 5855 5860 5864 5869 5873 5877 5880 5883 5887 5891 5893 5895 5897 5899 5900 5901 5901 5902 5904 5905 5906 5907 5907 5907 5907 5907 5906 5906 5907 5907 5908 5908 5907 5907 5907 5906 5906 5905 5904 5901
5835 5840 5846 5850 5855 5859 5863 5867 5871 5875 5880 5884 5887 5889 5891 5893 5894 5895 5897 5899 5899 5900 5901 5903 5903 5903 5904 5904 5904 5903 5903 5903 5903 5902 5902 5901 5902 5904 5902 5901 5899 5898 5897
5830 5834 5839 5844 5848 5854 5857 5862 5864 5869 5874 5878 5882 5885 5886 5888 5890 5892 5894 5894 5895 5896 5897 5897 5898 5899 5901 5900 5900 5899 5899 5899 5898 5897 5897 5897 5897 5897 5896 5893 5891 5890 5889
5822 5826 5831 5835 5839 5843 5848 5853 5858 5864 5868 5873 5876 5878 5881 5882 5884 5885 5886 5886 5888 5890 5892 5893 5893 5894 5896 5896 5896 5893 5892 5892 5893 5893 5891 5890 5889 5889 5889 5886 5884 5883 5881
5810 5816 5822 5826 5830 5837 5841 5845 5851 5857 5862 5867 5869 5871 5873 5876 5878 5878 5879 5881 5882 5884 5885 5887 5888 5889 5890 5890 5890 5889 5885 5884 5886 5885 5885 5884 5882 5880 5880 5879 5876 5874 5874
5807 5812 5816 5821 5825 5828 5833 5837 5842 5847 5855 5855 5859 5863 5866 5868 5871 5871 5872 5873 5875 5876 5877 5878 5880 5881 5883 5883 5883 5882 5878 5878 5877 5876 5875 5875 5874 5871 5870 5871 5865 5863 5861
5799 5803 5807 5813 5817 5821 5825 5829 5833 5837 5840 5844 5849 5853 5856 5859 5861 5863 5865 5865 5866 5868 5869 5870 5870 5872 5874 5874 5873 5873 5870 5870 5865 5866 5865 5861 5862 5861 5860 5858 5856 5850 5846
5792 5796 5801 5805 5809 5814 5818 5822 5825 5829 5833 5836 5839 5843 5847 5849 5852 5854 5855 5857 5858 5859 5861 5861 5861 5862 5862 5862 5862 5862 5861 5858 5854 5854 5849 5849 5846 5847 5845 5842 5839 5835 5833
5784 5788 5792 5796 5802 5806 5810 5814 5818 5821 5824 5828 5831 5833 5836 5839 5842 5844 5846 5847 5848 5849 5850 5850 5850 5849 5848 5849 5849 5848 5847 5846 5843 5841 5836 5826 5828 5831 5835 5829 5821 5816 5819
5774 5779 5783 5788 5793 5796 5801 5805 5809 5812 5816 5819 5822 5824 5826 5829 5831 5832 5834 5836 5837 5837 5837 5838 5837 5836 5836 5836 5832 5831 5829 5833 5830 5825 5815 5812 5806 5806 5811 5811 5807 5796 5800
5764 5769 5773 5778 5782 5786 5791 5795 5798 5802 5805 5808 5811 5813 5816 5818 5819 5821 5822 5823 5824 5823 5824 5824 5822 5821 5821 5820 5819 5818 5815 5813 5812 5805 5800 5797 5794 5790 5789 5790 5788 5782 5778
Wind_Speed
16 18 21 21 21 20 20 21 20 20 18 19 18 17 15 13 10 8 7 5 4 3 2 5 7 10 11 11 10 15 16 13 11 8 5 3 4 3 3 4 4 4 6
17 18 19 20 22 22 21 21 21 21 21 20 19 17 15 13 10 9 8 6 5 3 2 5 8 9 10 10 10 12 15 16 14 12 10 7 6 7 6 5 4 5 7
18 18 20 23 23 22 21 22 22 22 22 19 18 17 15 15 15 12 9 8 7 4 2 5 6 8 10 8 8 11 14 13 14 16 16 14 11 10 9 8 7 6 6
20 20 20 22 23 25 25 23 24 24 20 17 16 17 17 16 13 12 11 10 9 5 1 2 4 6 7 7 7 9 13 11 11 12 12 12 12 11 9 9 8 7 8
21 21 22 25 26 25 24 23 24 22 20 18 18 17 15 14 14 15 15 11 8 5 4 2 3 6 5 6 6 7 8 9 10 10 11 9 8 7 7 8 7 7 9
24 23 26 25 24 23 24 22 21 22 22 21 19 18 18 17 16 16 15 12 9 9 8 6 5 5 6 4 5 4 6 7 8 8 9 10 10 12 12 12 10 8 8
27 28 27 25 25 21 21 22 23 22 22 20 18 18 19 18 17 17 15 14 13 12 9 9 8 6 6 4 2 2 3 5 6 8 8 9 9 10 10 14 14 11 8
26 28 26 25 27 25 23 22 22 22 20 19 19 19 19 17 17 17 17 17 15 13 12 12 11 10 7 6 4 3 1 1 4 5 6 8 11 10 10 12 13 11 4
26 28 26 27 28 28 26 23 23 21 19 18 19 18 17 17 18 19 19 19 17 15 15 14 12 13 11 8 7 7 4 2 2 5 4 7 8 8 7 9 9 7 2
24 29 28 28 28 27 27 26 24 21 22 20 19 18 17 18 20 19 19 20 19 17 16 15 14 14 14 12 10 10 9 6 4 5 7 10 12 12 8 10 8 5 5
24 28 28 29 29 29 28 25 23 23 21 20 20 20 19 18 19 18 20 22 22 19 16 16 15 15 15 15 14 12 13 11 8 7 8 11 16 14 13 10 7 7 7
29 24 25 30 32 29 28 26 25 24 23 23 22 18 18 15 13 14 14 15 17 18 18 17 18 18 19 19 16 16 15 16 14 11 8 10 10 8 6 7 9 11 9
34 26 28 30 31 31 30 28 27 23 23 23 21 19 16 15 14 14 15 14 13 13 13 11 11 14 17 19 19 19 17 18 18 14 8 8 11 9 8 10 13 14 14
43 38 35 30 31 30 29 28 25 24 24 23 25 21 17 15 16 17 17 15 13 13 10 7 7 9 12 15 17 18 18 19 20 18 15 12 12 11 12 12 13 14 16
40 37 34 34 31 29 30 31 30 28 26 24 24 21 19 19 19 19 20 17 12 12 10 6 7 9 9 8 9 13 15 17 22 19 19 18 18 17 16 15 16 18 22
43 39 38 37 37 37 37 34 32 31 27 24 21 23 21 21 20 22 23 22 17 13 13 9 7 7 9 9 11 13 14 17 22 23 23 27 27 24 25 21 21 23 23
46 43 40 39 38 38 39 37 37 35 29 28 21 21 22 20 20 23 24 23 20 18 16 15 13 10 10 13 14 15 16 18 23 25 28 27 27 24 28 26 27 27 26
44 45 44 44 43 41 42 43 43 39 36 33 28 24 24 22 22 22 26 26 24 21 19 18 18 20 15 17 20 20 20 20 22 27 31 31 30 26 30 35 33 32 33
41 45 50 49 50 49 44 39 37 38 38 36 33 33 30 27 24 20 26 25 29 24 24 24 23 24 22 22 25 29 31 30 24 24 29 30 34 33 29 36 35 36 37
41 41 41 40 43 43 47 46 41 37 38 40 42 38 38 34 29 23 24 25 29 31 31 30 31 31 30 29 29 34 38 38 35 34 33 30 33 36 35 37 43 44 45
38 36 35 33 32 33 36 38 39 38 39 45 46 46 45 42 35 32 30 29 28 30 30 32 32 32 31 29 33 35 39 39 41 42 40 38 41 44 46 44 49 54 55
42 42 39 37 35 32 31 30 31 36 39 40 41 38 36 40 39 36 35 33 32 34 35 36 37 36 34 34 35 37 40 40 42 45 43 48 47 50 50 50 53 58 54
41 42 39 40 39 35 32 31 33 34 33 32 32 34 35 37 37 35 34 38 39 38 38 41 41 41 41 42 42 40 45 50 51 52 54 57 52 53 42 47 54 57 56
40 40 41 40 39 39 38 35 34 33 35 36 35 35 36 36 38 38 41 43 43 42 41 44 45 44 45 44 42 44 48 53 57 55 61 67 68 56 62 54 55 55 59
43 42 41 40 41 39 37 37 38 36 36 37 36 38 39 41 41 43 43 44 45 47 46 47 49 49 50 48 52 54 54 54 60 63 65 68 76 70 71 62 71 62 66
47 46 43 41 43 42 43 40 39 38 38 39 39 39 41 43 44 46 48 48 48 49 50 52 51 53 55 60 60 59 61 61 64 73 78 79 81 81 78 66 69 70 71
Wind_Direction
202 202 201 193 195 197 193 192 189 189 181 184 188 192 199 202 196 193 186 175 166 150 119 57 28 31 39 46 56 51 43 37 38 37 51 39 35 27 0 324 327 318 313
202 199 200 197 196 198 195 191 192 192 191 192 198 200 200 206 207 213 199 181 155 151 89 57 30 28 34 41 52 52 48 42 45 53 53 48 55 55 39 21 341 322 305
214 212 206 197 198 201 197 193 193 190 194 196 202 201 197 200 206 202 183 167 159 160 92 52 28 33 36 38 43 41 49 52 53 52 53 50 51 52 43 38 31 19 344
216 214 216 205 202 204 204 200 196 193 188 184 184 190 198 205 206 207 207 195 181 187 274 28 11 24 37 37 32 36 48 48 54 59 59 56 56 53 48 45 33 11 356
218 212 216 213 204 206 205 206 203 198 191 186 190 198 205 210 214 217 218 209 201 206 248 305 343 9 37 43 25 37 39 45 56 57 54 44 41 29 14 6 352 347 346
220 214 217 218 214 209 209 208 205 201 195 196 199 202 207 210 217 222 226 228 227 232 246 279 319 351 352 33 22 35 52 65 74 47 46 43 36 35 20 3 352 338 325
228 215 220 213 214 207 202 203 202 203 202 205 208 210 214 211 217 228 235 243 246 247 255 270 288 307 339 327 357 347 46 60 58 55 53 42 34 24 23 3 348 330 319
236 220 214 209 212 209 201 200 204 205 207 212 220 222 225 227 229 236 243 248 249 255 260 264 276 289 295 319 293 265 291 38 44 29 33 26 21 11 3 350 343 344 337
239 223 212 210 210 210 207 205 212 218 219 222 231 238 241 246 243 242 245 252 257 259 265 269 272 281 289 289 293 268 246 233 358 5 353 4 348 356 328 326 335 358 326
243 225 213 214 213 211 209 208 212 216 218 218 222 233 242 251 257 260 264 261 260 257 258 264 273 279 284 281 285 271 250 230 253 305 330 339 326 321 316 320 323 322 315
241 230 224 209 214 213 215 212 213 213 217 223 234 242 252 256 260 264 264 266 269 268 263 265 271 279 281 279 270 271 256 250 245 275 318 334 321 307 302 293 307 305 305
231 219 224 220 210 212 210 207 211 218 223 229 239 241 244 256 272 271 268 269 270 275 275 272 273 273 274 274 268 264 254 250 246 259 298 327 357 313 284 272 304 299 299
226 225 231 226 218 212 212 215 220 226 234 238 232 237 252 267 276 275 271 268 271 275 279 277 278 274 267 265 263 260 260 247 249 248 270 292 312 279 268 273 296 299 301
223 222 221 229 228 220 220 220 219 228 237 238 235 240 248 268 276 271 268 268 268 266 268 274 298 313 307 299 284 276 273 259 257 260 269 263 292 296 299 286 291 295 299
228 227 221 220 219 221 225 229 230 232 239 241 240 251 253 257 269 273 268 269 252 253 246 266 295 309 319 317 299 282 263 258 254 263 258 267 269 276 276 298 298 301 313
228 227 225 223 220 221 225 231 235 237 241 246 252 261 266 255 264 271 264 261 257 247 250 246 266 299 321 316 301 279 270 249 245 246 253 258 260 269 272 280 286 297 306
232 234 233 231 229 231 232 234 237 241 243 251 256 259 260 262 269 267 265 265 265 249 248 261 272 282 305 306 304 297 286 268 253 251 253 262 267 269 284 288 285 292 296
228 232 232 232 234 237 239 235 239 240 245 249 255 256 258 262 262 277 271 269 263 262 260 262 275 276 283 291 296 296 295 292 281 264 260 267 272 272 277 280 281 281 286
225 230 234 236 237 240 244 246 247 246 242 245 252 257 261 254 258 276 280 270 256 265 266 264 271 277 280 282 285 288 297 303 287 279 274 276 274 275 270 274 276 277 283
224 229 235 237 242 245 247 248 248 245 241 245 250 254 258 258 254 265 271 272 263 264 268 274 277 279 281 281 290 284 285 295 302 292 285 278 277 274 275 272 276 280 284
236 234 237 241 241 240 241 244 246 248 244 241 246 250 253 256 251 255 260 265 264 264 274 275 274 278 283 284 280 279 287 291 292 292 292 284 284 281 282 283 281 286 281
233 233 234 234 236 238 239 239 238 240 241 241 240 243 251 248 250 253 257 264 261 265 273 273 276 279 277 277 280 281 286 284 288 290 284 283 280 279 282 283 282 286 291
229 237 241 240 241 240 240 241 241 241 244 236 230 235 241 245 249 251 254 256 258 264 266 269 274 275 273 269 274 276 281 284 286 288 289 282 276 273 279 274 274 282 290
230 233 236 241 243 243 243 244 244 243 244 247 245 240 239 243 247 253 254 257 263 266 264 266 267 268 271 273 275 278 278 280 282 287 289 285 283 277 278 271 270 273 282
232 234 237 238 239 242 244 245 247 247 247 248 247 250 251 251 251 253 256 257 259 263 264 264 265 268 276 276 278 283 283 283 281 280 271 277 282 286 283 279 288 263 274
237 238 238 238 239 240 241 244 247 249 247 247 246 247 250 253 254 255 256 259 260 263 263 269 271 272 275 276 278 279 281 282 279 276 277 277 281 278 289 282 286 285 295